CW5624 Weather Reports


time (UTC)temp
F
wind
direction
speed
knots
gust
knots
rain 1hr
in
rain 24hr
in
rain mn
in
humidity
%
barometer
mb
20240713043740 76 28 0.0 1.7 0.00 0.00 0.00 100 1021.5
20240713042740 76 309 0.0 2.6 0.00 0.00 0.00 100 1021.5
20240713041740 76 38 0.0 0.9 0.00 0.00 0.00 100 1021.6
20240713040741 77 38 0.0 1.7 0.00 0.00 0.00 100 1021.5
20240713035741 77 37 0.0 2.6 0.00 0.00 0.01 100 1021.4
20240713034741 77 36 0.0 2.6 0.00 0.00 0.01 100 1021.5
20240713033741 77 39 0.0 2.6 0.00 0.00 0.01 100 1021.6
20240713032741 77 9 0.9 1.7 0.00 0.00 0.01 100 1021.6
20240713031742 77 350 0.0 2.6 0.00 0.00 0.01 100 1021.4
20240713030741 77 15 0.0 2.6 0.00 0.00 0.01 100 1021.4
20240713025741 77 329 0.0 1.7 0.00 0.00 0.01 100 1021.4
20240713024741 77 158 0.0 3.5 0.00 0.00 0.01 100 1021.4
20240713023741 77 5 0.0 2.6 0.00 0.00 0.01 100 1021.4
20240713022741 77 305 0.9 2.6 0.00 0.00 0.01 100 1021.4
20240713021742 78 9 0.9 1.7 0.00 0.00 0.01 100 1021.3
20240713020741 78 330 0.0 2.6 0.00 0.00 0.01 100 1021.4
20240713015741 78 76 0.0 4.3 0.00 0.00 0.01 100 1021.3
20240713014742 78 30 0.0 2.6 0.00 0.00 0.01 100 1021.3
20240713013741 78 62 0.0 2.6 0.00 0.00 0.01 100 1021.4
20240713012742 78 26 0.9 3.5 0.00 0.00 0.01 100 1021.3
20240713011741 78 48 0.9 1.7 0.00 0.00 0.01 100 1021.3
20240713010741 79 17 0.9 3.5 0.00 0.00 0.01 100 1021.3
20240713005741 79 5 0.9 2.6 0.00 0.00 0.01 100 1021.2
20240713004741 79 144 0.0 4.3 0.00 0.00 0.01 100 1021.1
20240713003741 79 22 0.0 2.6 0.00 0.00 0.01 100 1021.0
20240713002741 79 46 0.0 1.7 0.00 0.00 0.01 100 1020.8
20240713001741 80 48 0.0 0.9 0.00 0.00 0.01 100 1020.9
20240713000741 80 46 0.0 1.7 0.00 0.00 0.01 100 1020.9
20240712235741 80 46 0.0 0.9 0.00 0.00 0.01 100 1020.8
20240712234741 80 41 0.0 0.9 0.00 0.00 0.01 100 1020.7
20240712233741 80 42 0.0 0.9 0.00 0.00 0.01 100 1020.8
20240712232741 81 40 0.0 3.5 0.00 0.00 0.01 2 1020.6
20240712231741 81 138 0.0 2.6 0.00 0.00 0.01 9 1020.7
20240712230741 82 57 0.0 1.7 0.00 0.00 0.00 16 1020.7
20240712225741 82 68 0.0 2.6 0.00 0.00 0.00 17 1020.5
20240712224741 82 52 0.9 2.6 0.00 0.00 0.00 21 1020.6
20240712223741 83 101 0.0 2.6 0.00 0.00 0.00 25 1020.4
20240712222741 83 28 0.0 2.6 0.00 0.00 0.00 27 1020.3
20240712221741 83 355 0.0 3.5 0.00 0.00 0.00 30 1020.1
20240712220741 83 153 0.9 3.5 0.00 0.00 0.00 32 1019.9
20240712215741 84 33 4.3 4.3 0.00 0.00 0.00 33 1019.9
20240712214741 84 152 0.9 2.6 0.00 0.00 0.00 36 1020.0
20240712213741 84 57 0.0 2.6 0.00 0.00 0.00 37 1020.0
20240712212741 84 69 0.0 1.7 0.00 0.00 0.00 41 1020.0
20240712211741 84 17 0.9 1.7 0.00 0.00 0.00 41 1020.1
20240712210741 84 341 1.7 3.5 0.00 0.00 0.00 44 1020.1
20240712205741 85 32 2.6 2.6 0.00 0.00 0.00 46 1020.2
20240712204741 85 49 0.0 2.6 0.00 0.00 0.00 46 1020.1
20240712203741 85 351 0.0 3.5 0.00 0.00 0.00 47 1020.1
20240712202741 85 69 1.7 4.3 0.00 0.00 0.00 43 1020.1
20240712201741 84 103 0.0 5.2 0.00 0.00 0.00 44 1020.2
20240712200741 84 13 1.7 3.5 0.00 0.00 0.00 41 1020.2
20240712195741 84 55 0.9 4.3 0.00 0.00 0.00 36 1020.4
20240712194741 83 34 0.9 2.6 0.00 0.00 0.00 30 1020.4
20240712193741 82 25 0.0 3.5 0.00 0.00 0.00 28 1020.6
20240712192741 82 25 0.9 4.3 0.00 0.00 0.00 32 1020.7
20240712191741 82 38 0.0 2.6 0.00 0.00 0.00 30 1020.8
20240712190741 82 29 0.0 2.6 0.00 0.00 0.00 31 1020.8
20240712185743 82 32 0.0 4.3 0.00 0.00 0.00 32 1020.9
20240712184741 82 59 0.0 2.6 0.00 0.00 0.00 32 1020.8
20240712183743 82 81 0.0 2.6 0.00 0.00 0.00 32 1020.8
20240712182741 82 30 0.0 3.5 0.00 0.00 0.00 35 1020.8
20240712181741 81 22 2.6 4.3 0.00 0.00 0.00 41 1020.9
20240712180741 82 360 0.9 3.5 0.00 0.00 0.00 43 1020.8
20240712175742 83 35 0.0 2.6 0.00 0.00 0.00 46 1020.6
20240712174741 83 190 0.0 5.2 0.00 0.00 0.00 47 1020.5
20240712173742 84 183 0.9 4.3 0.00 0.00 0.00 51 1020.7
20240712172742 85 332 0.9 4.3 0.00 0.00 0.00 58 1020.7
20240712171742 86 350 0.9 4.3 0.00 0.00 0.00 60 1020.6
20240712170742 86 211 0.9 2.6 0.00 0.00 0.00 61 1020.6
20240712165743 86 29 1.7 6.1 0.00 0.00 0.00 61 1020.6
20240712164742 86 123 0.0 3.5 0.00 0.00 0.00 61 1020.6
20240712163742 87 5 0.9 1.7 0.00 0.00 0.00 61 1020.5
20240712162742 87 347 0.9 3.5 0.00 0.00 0.00 61 1020.6
20240712161742 87 215 0.0 1.7 0.00 0.00 0.00 61 1020.5
20240712160742 87 48 0.0 3.5 0.00 0.00 0.00 61 1020.5
20240712155742 88 87 0.9 3.5 0.00 0.00 0.00 61 1020.4
20240712154742 87 360 0.0 5.2 0.00 0.00 0.00 61 1020.3
20240712153742 87 40 0.9 3.5 0.00 0.00 0.00 61 1020.3
20240712152742 86 28 0.0 3.5 0.00 0.00 0.00 61 1020.2
20240712151742 86 76 0.0 2.6 0.00 0.00 0.00 61 1020.3
20240712150742 86 68 0.0 2.6 0.00 0.00 0.00 61 1020.3
20240712145742 85 144 1.7 3.5 0.00 0.00 0.00 61 1020.4
20240712144742 84 102 0.9 3.5 0.00 0.00 0.00 61 1020.3
20240712143743 84 347 0.0 2.6 0.00 0.00 0.00 61 1020.3
20240712142742 83 47 0.0 3.5 0.00 0.00 0.00 60 1020.3
20240712141742 82 47 0.0 2.6 0.00 0.00 0.00 58 1020.4
20240712140742 82 36 0.0 3.5 0.00 0.00 0.00 57 1020.5
20240712135743 82 30 2.6 3.5 0.00 0.00 0.00 57 1020.4
20240712134742 82 60 0.9 1.7 0.00 0.00 0.00 50 1020.4
20240712133742 81 65 0.0 1.7 0.00 0.00 0.00 45 1020.6
20240712132743 80 63 0.0 0.9 0.00 0.00 0.00 43 1020.7
20240712131742 80 63 0.0 2.6 0.00 0.00 0.00 40 1020.7
20240712130742 80 355 0.9 1.7 0.00 0.00 0.00 43 1020.7
20240712125742 80 355 0.0 2.6 0.00 0.00 0.00 39 1020.7
20240712124743 79 26 0.0 2.6 0.00 0.00 0.00 34 1020.8
20240712123742 78 77 0.9 2.6 0.00 0.00 0.00 32 1020.7
20240712122742 77 182 0.0 1.7 0.00 0.00 0.00 24 1020.7
20240712121742 76 14 0.9 1.7 0.00 0.00 0.00 11 1020.8
20240712120744 76 312 0.0 0.0 0.00 0.00 0.00 5 1020.7
20240712115742 75 312 0.9 0.9 0.00 0.00 0.00 100 1020.6
20240712114742 74 308 0.0 1.7 0.00 0.00 0.00 100 1020.4
20240712113742 73 289 0.0 0.9 0.00 0.00 0.00 100 1020.4
20240712112742 73 289 0.0 0.9 0.00 0.00 0.00 100 1020.2
20240712111743 72 265 0.0 0.9 0.00 0.00 0.00 100 1020.3
20240712110742 72 203 0.0 1.7 0.00 0.00 0.00 100 1020.2
20240712105742 71 203 0.0 1.7 0.00 0.00 0.00 100 1019.9
20240712104742 71 58 0.0 0.0 0.00 0.00 0.00 100 1019.8
20240712103742 71 58 0.0 0.0 0.00 0.00 0.00 100 1019.8
20240712102742 70 64 0.0 0.0 0.00 0.00 0.00 100 1019.7
20240712101742 70 64 0.0 0.0 0.00 0.00 0.00 100 1019.7
20240712100742 70 64 0.0 0.0 0.00 0.00 0.00 100 1019.6
20240712095742 70 64 0.0 0.0 0.00 0.00 0.00 100 1019.5
20240712094742 70 64 0.0 0.0 0.00 0.00 0.00 100 1019.4
20240712093742 70 64 0.0 0.0 0.00 0.00 0.00 100 1019.3
20240712092742 70 59 0.0 0.0 0.00 0.00 0.00 100 1019.1
20240712091742 70 59 0.0 0.0 0.00 0.00 0.00 100 1019.0
20240712090744 70 59 0.0 0.0 0.00 0.00 0.00 100 1018.8
20240712085742 71 59 0.0 0.0 0.00 0.00 0.00 100 1018.9
20240712084758 71 59 0.0 0.0 0.00 0.00 0.00 100 1018.8
20240712083742 71 59 0.0 0.0 0.00 0.00 0.00 100 1018.8
20240712082742 71 59 0.0 0.0 0.00 0.00 0.00 100 1018.7
20240712081742 71 59 0.0 0.0 0.00 0.00 0.00 100 1018.6
20240712080744 71 59 0.0 0.0 0.00 0.00 0.00 100 1018.5
20240712075742 71 59 0.0 0.0 0.00 0.00 0.00 100 1018.4
20240712074742 71 59 0.0 0.0 0.00 0.00 0.00 100 1018.3
20240712073742 72 59 0.0 0.0 0.00 0.00 0.00 100 1018.3
20240712072744 72 59 0.0 0.0 0.00 0.00 0.00 100 1018.1
20240712071742 72 59 0.0 0.0 0.00 0.00 0.00 100 1018.1
20240712070742 72 59 0.0 0.0 0.00 0.00 0.00 100 1018.1
20240712065743 72 59 0.0 0.0 0.00 0.00 0.00 100 1018.1
20240712064744 72 59 0.0 0.0 0.00 0.00 0.00 100 1018.0
20240712063743 72 59 0.0 0.0 0.00 0.00 0.00 100 1017.9
20240712062743 73 59 0.0 0.0 0.00 0.00 0.00 100 1017.9
20240712061743 73 59 0.0 0.0 0.00 0.00 0.00 100 1017.9
20240712060743 73 59 0.0 0.0 0.00 0.00 0.00 2 1017.8
20240712055743 73 59 0.0 0.0 0.00 0.00 0.00 4 1017.7
20240712054743 73 59 0.0 0.9 0.00 0.00 0.00 6 1017.5
20240712053743 74 59 0.0 0.0 0.00 0.00 0.00 8 1017.6
20240712052743 74 59 0.0 0.0 0.00 0.00 0.00 10 1017.5
20240712051743 74 59 0.0 0.9 0.00 0.00 0.00 13 1017.6
20240712050744 74 59 0.0 0.0 0.00 0.00 0.00 15 1017.6
20240712045743 74 59 0.0 0.0 0.00 0.00 0.00 18 1017.6
20240712044743 75 59 0.0 0.0 0.00 0.00 0.00 20 1017.6